Satellite: AUBIESAT Catalog number: 37854 Epoch time: 13325.77268450 Element set: 636 Inclination: 101.7045 deg RA of node: 253.7145 deg Eccentricity: 0.0227937 Arg of perigee: 293.3357 deg Mean anomaly: 092.3752 deg Mean motion: 14.86433784 rev/day Decay rate: 1.5109e-04 rev/day^2 Epoch rev: 11185 Checksum: 317
Satellite: HRBE Catalog number: 37855 Epoch time: 13325.75547817 Element set: 644 Inclination: 101.7046 deg RA of node: 253.3180 deg Eccentricity: 0.0229253 Arg of perigee: 294.1194 deg Mean anomaly: 123.9666 deg Mean motion: 14.85975485 rev/day Decay rate: 1.5486e-04 rev/day^2 Epoch rev: 11183 Checksum: 328
Satellite: RS-39 Catalog number: 38051 Epoch time: 13325.89285380 Element set: 994 Inclination: 051.6330 deg RA of node: 166.7716 deg Eccentricity: 0.0010684 Arg of perigee: 126.5822 deg Mean anomaly: 006.1536 deg Mean motion: 15.38341364 rev/day Decay rate: 2.9656e-04 rev/day^2 Epoch rev: 10200 Checksum: 303
Satellite: E-STAR Catalog number: 38079 Epoch time: 13325.71324095 Element set: 617 Inclination: 069.4673 deg RA of node: 159.9327 deg Eccentricity: 0.0540165 Arg of perigee: 285.8718 deg Mean anomaly: 151.2110 deg Mean motion: 14.65683947 rev/day Decay rate: 6.8528e-04 rev/day^2 Epoch rev: 9265 Checksum: 340
Satellite: GOLIAT Catalog number: 38085 Epoch time: 13325.70049534 Element set: 558 Inclination: 069.4708 deg RA of node: 163.6117 deg Eccentricity: 0.0553304 Arg of perigee: 287.7260 deg Mean anomaly: 066.4086 deg Mean motion: 14.62743368 rev/day Decay rate: 5.7731e-04 rev/day^2 Epoch rev: 9255 Checksum: 324
Satellite: HORYU-2 Catalog number: 38340 Epoch time: 13325.42246522 Element set: 675 Inclination: 098.2344 deg RA of node: 274.6272 deg Eccentricity: 0.0013237 Arg of perigee: 110.6850 deg Mean anomaly: 249.5756 deg Mean motion: 14.71423157 rev/day Decay rate: 3.335e-05 rev/day^2 Epoch rev: 8123 Checksum: 286
Satellite: RS-40 Catalog number: 38736 Epoch time: 13324.88299177 Element set: 430 Inclination: 082.4809 deg RA of node: 057.4243 deg Eccentricity: 0.0020744 Arg of perigee: 347.1092 deg Mean anomaly: 012.9460 deg Mean motion: 12.42873533 rev/day Decay rate: 1.0e-07 rev/day^2 Epoch rev: 5971 Checksum: 295
Satellite: PROITERES Catalog number: 38756 Epoch time: 13325.84110379 Element set: 322 Inclination: 098.2439 deg RA of node: 045.6991 deg Eccentricity: 0.0012217 Arg of perigee: 330.6887 deg Mean anomaly: 029.3620 deg Mean motion: 14.74459271 rev/day Decay rate: 1.634e-05 rev/day^2 Epoch rev: 6462 Checksum: 306
Satellite: RAIKO Catalog number: 38852 Epoch time: 13218.07382584 Element set: 340 Inclination: 051.6160 deg RA of node: 184.0336 deg Eccentricity: 0.0004489 Arg of perigee: 261.9162 deg Mean anomaly: 100.6538 deg Mean motion: 16.48474690 rev/day Decay rate: 2.4681979e-01 rev/day^2 Epoch rev: 4784 Checksum: 326
Satellite: BEESAT-3 Catalog number: 39134 Epoch time: 13325.79462953 Element set: 427 Inclination: 064.8637 deg RA of node: 073.1627 deg Eccentricity: 0.0006877 Arg of perigee: 332.2882 deg Mean anomaly: 027.7840 deg Mean motion: 15.01770084 rev/day Decay rate: 1.1272e-04 rev/day^2 Epoch rev: 3248 Checksum: 310
Satellite: BEESAT-2 Catalog number: 39136 Epoch time: 13325.53751388 Element set: 417 Inclination: 064.8618 deg RA of node: 074.0367 deg Eccentricity: 0.0006682 Arg of perigee: 333.0719 deg Mean anomaly: 027.0051 deg Mean motion: 15.01580065 rev/day Decay rate: 1.0071e-04 rev/day^2 Epoch rev: 3244 Checksum: 274
/EX
participants (1)
-
Ray Hoad